Flag for Germany

Past Weather in Rietberg, North Rhine-Westphalia, Germany — Yesterday and Last 2 Weeks

Currently: 41 °F. More clouds than sun. (Weather station: Paderborn / Lippstadt, Germany). See more current weather

Past Weather in Rietberg — Graph

°F

Rietberg Temperature Yesterday

Maximum temperature yesterday: 52 °F (at 1:50 pm)
Minimum temperature yesterday: 45 °F (at 7:20 am)
Average temperature yesterday: 48 °F

High & Low Weather Summary for the Past Weeks

 TemperatureHumidityPressure
High52 °F (Jan 20, 1:50 pm)93% (Jan 6, 8:20 am)30.36 "Hg (Jan 6, 8:20 am)
Low28 °F (Jan 15, 7:20 am)38% (Jan 20, 2:50 pm)29.21 "Hg (Jan 21, 7:20 am)
Average35 °F79%29.95 "Hg
* Reported Jan 6 8:20 am — Jan 21 8:20 am, Rietberg. Weather by CustomWeather, © 2021

Note: Actual official high and low records may vary slightly from our data, if they occured in-between our weather recording intervals... More about our weather records

Rietberg Weather History for the Previous 24 Hours

Scroll right to see more
 ConditionsComfort  
Time TempWeatherWind HumidityBarometerVisibility
8:20 am
Thu, Jan 21
41 °FSprinkles. Partly sunny.23 mph81%29.30 "Hg4 mi
7:50 am50 °FPassing clouds.21 mph58%29.21 "HgN/A
7:20 am50 °FClear.28 mph54%29.21 "Hg10 mi
12:20 am48 °FClear.18 mph58%29.36 "Hg10 mi
11:50 pm
Wed, Jan 20
50 °FClear.18 mph54%29.39 "Hg10 mi
11:20 pm48 °FClear.16 mph58%29.39 "Hg10 mi
10:50 pm46 °FClear.15 mph62%29.42 "Hg10 mi
10:20 pm48 °FClear.17 mph58%29.42 "Hg10 mi
9:50 pm48 °FClear.15 mph58%29.42 "Hg10 mi
9:20 pm48 °FClear.13 mph54%29.45 "Hg10 mi
8:50 pm48 °FClear.17 mph54%29.45 "Hg10 mi
8:20 pm48 °FClear.17 mph54%29.45 "Hg10 mi
7:50 pm48 °FClear.17 mph54%29.45 "Hg10 mi
7:20 pm48 °FClear.18 mph50%29.45 "Hg10 mi
6:50 pm48 °FClear.20 mph50%29.45 "Hg10 mi
6:20 pm48 °FClear.17 mph50%29.47 "Hg10 mi
5:50 pm50 °FClear.17 mph43%29.47 "Hg10 mi
5:20 pm48 °FClear.15 mph50%29.47 "Hg10 mi
4:50 pm48 °FSunny.15 mph46%29.47 "Hg10 mi
4:20 pm50 °FLight rain. Clear.13 mph43%29.47 "HgN/A
3:50 pm50 °FPassing clouds.15 mph43%29.50 "HgN/A
3:20 pm50 °FSunny.17 mph43%29.50 "Hg10 mi
2:50 pm52 °FPassing clouds.13 mph38%29.50 "HgN/A
2:20 pm50 °FSunny.17 mph40%29.50 "Hg10 mi
1:50 pm52 °FPassing clouds.16 mph41%29.50 "HgN/A
1:20 pm50 °FSunny.20 mph47%29.53 "Hg10 mi
12:50 pm50 °FSunny.18 mph47%29.53 "Hg10 mi
12:20 pm48 °FSunny.17 mph50%29.53 "Hg10 mi
11:50 am48 °FSunny.18 mph50%29.53 "Hg10 mi
11:20 am46 °FPassing clouds.22 mph57%29.56 "HgN/A
10:50 am46 °FSunny.21 mph57%29.56 "Hg10 mi
10:20 am46 °FOvercast.23 mph57%29.56 "HgN/A
Weather by CustomWeather, © 2021

See weather overview